Regional Weather Roundup
Issued by NWS Sioux Falls, SD

Home | Current Version | Previous Version | Text Only | Print | Product List | Glossary On
Versions: 1 2 3 4 5 6 7 8 9 10 11 12 13 14 15 16 17 18 19 20 21 22 23 24 25 26 27 28 29 30 31 32 33 34 35 36 37 38 39 40 41 42 43 44 45 46 47 48 49 50
000
ASUS43 KFSD 200002
RWRFSD

WEATHER ROUNDUP FOR SE SOUTH DAKOTA/SW MINNESOTA/NW IOWA
NATIONAL WEATHER SERVICE SIOUX FALLS SD
700 PM CDT SAT APR 19 2014

NOTE: "FAIR" INDICATES FEW OR NO CLOUDS BELOW 12,000 FEET WITH NO
SIGNIFICANT WEATHER AND OR OBSTRUCTIONS TO VISIBILITY.


SDZ038>040-050-052>070-200100-
SOUTHEAST SOUTH DAKOTA

CITY           SKY/WX    TMP DP  RH WIND       PRES   REMARKS
CHAMBERLAIN      N/A     68  22  17 NE5       30.01R
6HR MIN TEMP:  62; 6HR MAX TEMP:  71;

HURON          PTSUNNY   66  25  21 SW5       29.98S
6HR MIN TEMP:  64; 6HR MAX TEMP:  70;

MADISON        FAIR      64  23  20 NW7       30.00F
MITCHELL       MOSUNNY   68  23  18 CALM      30.00S
6HR MIN TEMP:  61; 6HR MAX TEMP:  69;

SIOUX FALLS    CLOUDY    66  32  28 N7        29.98S
6HR MIN TEMP:  66; 6HR MAX TEMP:  71;

WINNER         FAIR      69  21  16 CALM      30.01S
YANKTON        MOSUNNY   68  41  37 N6        29.98S
$$

MNZ071-072-080-081-089-090-097-098-200100-
SOUTHWEST MINNESOTA

CITY           SKY/WX    TMP DP  RH WIND       PRES   REMARKS
FAIRMONT       CLOUDY    70  46  43 W6        29.99S
JACKSON        LGT RAIN  64  48  55 N8G21     30.00R
LUVERNE        CLOUDY    68  32  26 N5        29.99S
MARSHALL       CLOUDY    64  37  36 NW9       29.99R
6HR MIN TEMP:  63; 6HR MAX TEMP:  66;

MONTEVIDEO     MOSUNNY   64  41  42 SW5       29.99S
PIPESTONE      CLOUDY    64  36  34 N5        30.00S
REDWOOD FALLS  CLOUDY    63  38  39 N6        29.99S
TRACY          CLOUDY    64  40  40 CALM      30.00R
WINDOM         CLOUDY    63  46  55 N8        29.99F
WORTHINGTON    CLOUDY    66  39  37 N7        30.02R
$$

IAZ001>003-012>014-020>022-031-032-NEZ013-014-SDZ071-200100-
NORTHWEST IOWA

CITY           SKY/WX    TMP DP  RH WIND       PRES   REMARKS
CHEROKEE       CLOUDY    71  47  42 S8        29.97S
DENISON        CLOUDY    75  43  31 S13       29.97S
ESTHERVILLE    CLOUDY    69  49  48 W6        29.97S
SHELDON        CLOUDY    70  48  46 W6        29.97S
SIOUX CITY     CLOUDY    71  49  45 N7        29.97R
6HR MIN TEMP:  71; 6HR MAX TEMP:  79;

SPENCER        CLOUDY    68  48  48 SW5       29.98R
6HR MIN TEMP:  68; 6HR MAX TEMP:  77;

STORM LAKE     CLOUDY    72  45  37 SW9       29.99S
$$

ABBREVIATIONS USED IN REMARKS
   TC - TEMPERATURE IN CELSIUS
  WCI - WIND CHILL INDEX
   HX - HEAT INDEX
  VSB - VISIBILITY




USA.gov is the U.S. government's official web portal to all federal, state and local government web resources and services.